QPF
0.00 0.01 0.02 0.01 0.01 0.01 0.01 0.02 0.01 0.02 0.03 0.02 0.01 0.01 0.01 0.02 0.01 0.02 0.02 0.02 0.02 0.01 0.01 0.02 0.02 0.02 0.02 0.02 0.02 0.01 0.02 0.02 0.01 0.00 0.00 0.00 0.00 0.01 0.01 0.01 0.01 0.01 0.00 0.01
0.00 0.01 0.02 0.02 0.01 0.00 0.01 0.02 0.01 0.01 0.02 0.02 0.01 0.00 0.01 0.02 0.02 0.02 0.02 0.02 0.02 0.01 0.01 0.01 0.02 0.02 0.01 0.02 0.02 0.02 0.02 0.02 0.02 0.01 0.01 0.01 0.00 0.01 0.01 0.01 0.01 0.01 0.01 0.01
0.01 0.02 0.01 0.01 0.01 0.01 0.01 0.01 0.01 0.00 0.01 0.01 0.01 0.01 0.00 0.01 0.02 0.02 0.02 0.02 0.01 0.01 0.01 0.01 0.02 0.03 0.03 0.03 0.03 0.03 0.02 0.02 0.02 0.01 0.02 0.02 0.01 0.01 0.01 0.01 0.01 0.01 0.01 0.01
0.01 0.01 0.01 0.01 0.01 0.01 0.01 0.00 0.01 0.00 0.00 0.01 0.01 0.01 0.01 0.01 0.01 0.01 0.02 0.02 0.01 0.01 0.01 0.01 0.01 0.02 0.03 0.04 0.04 0.04 0.03 0.02 0.02 0.02 0.02 0.03 0.03 0.02 0.01 0.01 0.01 0.01 0.02 0.02
0.00 0.00 0.01 0.00 0.01 0.01 0.01 0.01 0.01 0.00 0.00 0.00 0.00 0.00 0.00 0.00 0.00 0.01 0.01 0.01 0.01 0.01 0.01 0.01 0.01 0.01 0.01 0.02 0.03 0.03 0.04 0.04 0.04 0.04 0.02 0.03 0.03 0.02 0.01 0.01 0.01 0.01 0.02 0.03
0.01 0.00 0.00 0.00 0.00 0.00 0.01 0.01 0.01 0.01 0.01 0.00 0.00 0.01 0.01 0.01 0.01 0.01 0.01 0.01 0.00 0.01 0.01 0.01 0.01 0.00 0.01 0.01 0.03 0.04 0.05 0.05 0.05 0.05 0.04 0.03 0.03 0.03 0.03 0.01 0.01 0.01 0.01 0.02
0.00 0.00 0.00 0.00 0.00 0.00 0.01 0.01 0.01 0.01 0.00 0.00 0.01 0.01 0.01 0.01 0.01 0.00 0.01 0.01 0.01 0.00 0.00 0.00 0.01 0.00 0.00 0.01 0.02 0.03 0.04 0.06 0.06 0.07 0.08 0.06 0.04 0.04 0.02 0.01 0.02 0.02 0.02 0.02
0.01 0.00 0.00 0.00 0.00 0.00 0.01 0.01 0.01 0.01 0.01 0.01 0.01 0.01 0.01 0.01 0.01 0.00 0.00 0.01 0.00 0.00 0.00 0.00 0.00 0.00 0.00 0.00 0.01 0.01 0.02 0.02 0.03 0.04 0.08 0.13 0.08 0.05 0.03 0.02 0.02 0.02 0.02 0.02
0.01 0.00 0.00 0.00 0.00 0.00 0.01 0.01 0.01 0.01 0.02 0.02 0.01 0.01 0.01 0.01 0.01 0.00 0.01 0.01 0.00 0.00 0.00 0.00 0.00 0.00 0.01 0.01 0.01 0.01 0.01 0.01 0.02 0.02 0.04 0.09 0.12 0.08 0.05 0.03 0.02 0.02 0.01 0.01
0.01 0.01 0.00 0.00 0.00 0.00 0.01 0.01 0.01 0.01 0.02 0.03 0.02 0.01 0.01 0.00 0.00 0.00 0.00 0.00 0.00 0.00 0.01 0.00 0.01 0.01 0.01 0.01 0.00 0.00 0.01 0.01 0.02 0.03 0.03 0.05 0.06 0.06 0.05 0.04 0.03 0.02 0.02 0.01
0.01 0.01 0.01 0.00 0.00 0.00 0.01 0.01 0.01 0.01 0.01 0.01 0.01 0.02 0.01 0.00 0.00 0.00 0.00 0.00 0.00 0.00 0.01 0.01 0.01 0.01 0.01 0.00 0.00 0.00 0.01 0.01 0.01 0.02 0.03 0.04 0.04 0.04 0.04 0.04 0.03 0.03 0.02 0.01
0.01 0.01 0.01 0.01 0.00 0.00 0.00 0.00 0.00 0.00 0.00 0.01 0.01 0.01 0.01 0.00 0.00 0.00 0.00 0.00 0.00 0.00 0.01 0.01 0.01 0.01 0.01 0.00 0.00 0.00 0.00 0.01 0.01 0.01 0.02 0.04 0.05 0.05 0.05 0.04 0.03 0.03 0.03 0.02
0.01 0.01 0.01 0.01 0.01 0.00 0.00 0.00 0.00 0.00 0.00 0.00 0.01 0.00 0.00 0.00 0.01 0.01 0.01 0.01 0.01 0.01 0.01 0.01 0.01 0.01 0.01 0.01 0.00 0.00 0.00 0.00 0.00 0.01 0.01 0.03 0.05 0.05 0.05 0.05 0.04 0.03 0.03 0.02
0.00 0.01 0.01 0.01 0.01 0.01 0.00 0.00 0.00 0.00 0.01 0.00 0.00 0.00 0.00 0.00 0.01 0.02 0.01 0.01 0.02 0.02 0.01 0.02 0.02 0.01 0.01 0.01 0.01 0.00 0.00 0.00 0.00 0.01 0.01 0.03 0.05 0.09 0.11 0.10 0.09 0.06 0.04 0.03
0.00 0.00 0.00 0.01 0.01 0.00 0.00 0.00 0.00 0.00 0.00 0.00 0.00 0.00 0.00 0.00 0.03 0.03 0.02 0.02 0.02 0.03 0.03 0.02 0.02 0.01 0.01 0.01 0.01 0.01 0.00 0.00 0.01 0.01 0.01 0.02 0.03 0.05 0.08 0.11 0.14 0.11 0.07 0.04
0.01 0.00 0.00 0.00 0.01 0.01 0.00 0.00 0.00 0.00 0.00 0.00 0.00 0.00 0.00 0.00 0.02 0.04 0.03 0.01 0.01 0.02 0.02 0.03 0.02 0.02 0.01 0.01 0.01 0.01 0.01 0.01 0.01 0.01 0.01 0.02 0.03 0.03 0.04 0.05 0.08 0.11 0.09 0.07
0.01 0.00 0.00 0.00 0.01 0.01 0.01 0.00 0.00 0.00 0.00 0.00 0.00 0.00 0.00 0.01 0.01 0.02 0.03 0.01 0.01 0.01 0.01 0.02 0.02 0.01 0.01 0.01 0.01 0.01 0.01 0.01 0.01 0.01 0.02 0.02 0.03 0.03 0.03 0.05 0.05 0.05 0.06 0.06
0.00 0.01 0.01 0.00 0.01 0.01 0.01 0.00 0.00 0.00 0.01 0.00 0.00 0.00 0.00 0.01 0.01 0.01 0.01 0.01 0.01 0.00 0.01 0.01 0.01 0.01 0.01 0.02 0.02 0.02 0.02 0.02 0.01 0.01 0.02 0.03 0.03 0.04 0.04 0.03 0.03 0.04 0.05 0.05
0.00 0.01 0.01 0.01 0.00 0.00 0.00 0.00 0.00 0.00 0.01 0.01 0.00 0.00 0.00 0.01 0.01 0.01 0.00 0.00 0.00 0.00 0.01 0.01 0.01 0.01 0.01 0.01 0.02 0.01 0.02 0.02 0.01 0.02 0.02 0.03 0.04 0.03 0.03 0.03 0.03 0.04 0.06 0.04
0.00 0.00 0.01 0.01 0.01 0.00 0.00 0.00 0.00 0.00 0.00 0.00 0.00 0.00 0.00 0.00 0.00 0.00 0.00 0.00 0.00 0.01 0.01 0.01 0.01 0.01 0.01 0.01 0.01 0.01 0.01 0.01 0.02 0.02 0.02 0.04 0.05 0.04 0.03 0.03 0.03 0.04 0.06 0.07
0.00 0.00 0.01 0.01 0.01 0.01 0.01 0.01 0.00 0.00 0.00 0.00 0.00 0.00 0.00 0.00 0.00 0.00 0.00 0.00 0.00 0.00 0.00 0.00 0.00 0.00 0.00 0.01 0.01 0.01 0.01 0.01 0.01 0.01 0.02 0.04 0.06 0.07 0.05 0.04 0.04 0.04 0.06 0.09
0.01 0.00 0.01 0.01 0.01 0.01 0.01 0.01 0.01 0.00 0.00 0.00 0.00 0.00 0.01 0.01 0.01 0.01 0.01 0.00 0.00 0.00 0.00 0.00 0.00 0.00 0.00 0.01 0.00 0.00 0.01 0.01 0.01 0.01 0.01 0.02 0.04 0.04 0.05 0.06 0.04 0.04 0.06 0.09
0.01 0.01 0.00 0.01 0.01 0.00 0.00 0.00 0.00 0.00 0.00 0.00 0.00 0.00 0.00 0.00 0.01 0.01 0.01 0.01 0.01 0.00 0.00 0.00 0.00 0.00 0.00 0.00 0.00 0.00 0.00 0.00 0.01 0.01 0.01 0.02 0.02 0.02 0.02 0.04 0.05 0.04 0.05 0.06
0.01 0.01 0.01 0.01 0.00 0.00 0.00 0.00 0.00 0.00 0.00 0.00 0.00 0.00 0.00 0.00 0.00 0.00 0.00 0.00 0.00 0.00 0.00 0.00 0.00 0.00 0.00 0.00 0.00 0.00 0.00 0.00 0.01 0.01 0.02 0.02 0.02 0.02 0.02 0.02 0.03 0.04 0.04 0.04
0.01 0.02 0.01 0.01 0.01 0.00 0.00 0.00 0.00 0.00 0.00 0.00 0.00 0.00 0.00 0.00 0.00 0.00 0.00 0.00 0.00 0.00 0.00 0.00 0.00 0.00 0.00 0.00 0.00 0.00 0.00 0.01 0.01 0.01 0.02 0.03 0.03 0.02 0.02 0.02 0.02 0.03 0.03 0.04
0.00 0.01 0.02 0.01 0.01 0.00 0.00 0.00 0.00 0.00 0.00 0.00 0.00 0.00 0.00 0.00 0.00 0.00 0.00 0.00 0.00 0.00 0.00 0.00 0.00 0.00 0.00 0.00 0.00 0.00 0.00 0.00 0.01 0.01 0.02 0.02 0.02 0.02 0.01 0.02 0.03 0.03 0.02 0.03
MSLP
1010.65 1011.35 1011.88 1012.25 1012.51 1012.73 1012.96 1013.27 1013.67 1014.14 1014.65 1015.13 1015.51 1015.75 1015.82 1015.73 1015.53 1015.27 1015.01 1014.80 1014.67 1014.61 1014.63 1014.68 1014.73 1014.76 1014.74 1014.68 1014.59 1014.51 1014.46 1014.45 1014.49 1014.59 1014.71 1014.82 1014.92 1014.96 1014.95 1014.88 1014.78 1014.67 1014.57 1014.52
1011.11 1011.60 1011.91 1012.08 1012.19 1012.32 1012.54 1012.90 1013.40 1014.01 1014.64 1015.22 1015.67 1015.93 1015.98 1015.85 1015.59 1015.27 1014.97 1014.73 1014.59 1014.55 1014.58 1014.64 1014.70 1014.71 1014.68 1014.60 1014.50 1014.41 1014.37 1014.39 1014.48 1014.62 1014.78 1014.93 1015.03 1015.05 1015.00 1014.88 1014.73 1014.56 1014.42 1014.34
1011.42 1011.71 1011.83 1011.84 1011.84 1011.92 1012.16 1012.60 1013.21 1013.94 1014.68 1015.34 1015.82 1016.08 1016.10 1015.90 1015.57 1015.19 1014.83 1014.57 1014.42 1014.37 1014.41 1014.48 1014.54 1014.55 1014.50 1014.41 1014.30 1014.22 1014.21 1014.27 1014.40 1014.60 1014.80 1014.98 1015.09 1015.11 1015.04 1014.88 1014.67 1014.45 1014.27 1014.14
1011.60 1011.73 1011.70 1011.61 1011.56 1011.66 1011.96 1012.49 1013.21 1014.04 1014.86 1015.55 1016.03 1016.25 1016.19 1015.91 1015.50 1015.05 1014.64 1014.34 1014.18 1014.15 1014.20 1014.28 1014.34 1014.35 1014.29 1014.19 1014.09 1014.02 1014.03 1014.12 1014.30 1014.54 1014.79 1015.01 1015.14 1015.17 1015.08 1014.89 1014.65 1014.39 1014.16 1013.99
1011.70 1011.72 1011.63 1011.51 1011.48 1011.64 1012.03 1012.67 1013.49 1014.39 1015.24 1015.92 1016.34 1016.47 1016.31 1015.92 1015.42 1014.89 1014.44 1014.12 1013.96 1013.94 1014.01 1014.11 1014.19 1014.20 1014.15 1014.05 1013.95 1013.89 1013.91 1014.03 1014.24 1014.52 1014.81 1015.05 1015.21 1015.24 1015.16 1014.96 1014.70 1014.42 1014.15 1013.94
1011.78 1011.76 1011.66 1011.59 1011.64 1011.91 1012.43 1013.18 1014.07 1015.00 1015.83 1016.44 1016.76 1016.76 1016.47 1015.96 1015.35 1014.76 1014.27 1013.95 1013.81 1013.82 1013.93 1014.07 1014.17 1014.20 1014.16 1014.07 1013.97 1013.91 1013.93 1014.06 1014.29 1014.58 1014.89 1015.15 1015.33 1015.38 1015.31 1015.12 1014.86 1014.57 1014.28 1014.03
1011.89 1011.87 1011.83 1011.86 1012.05 1012.46 1013.11 1013.95 1014.89 1015.80 1016.56 1017.06 1017.23 1017.08 1016.64 1016.01 1015.31 1014.67 1014.18 1013.88 1013.78 1013.85 1014.02 1014.20 1014.35 1014.41 1014.39 1014.31 1014.20 1014.14 1014.15 1014.27 1014.48 1014.76 1015.07 1015.34 1015.52 1015.59 1015.54 1015.37 1015.13 1014.84 1014.55 1014.28
1012.02 1012.06 1012.12 1012.29 1012.64 1013.20 1013.96 1014.87 1015.81 1016.67 1017.32 1017.67 1017.68 1017.36 1016.78 1016.04 1015.29 1014.63 1014.16 1013.91 1013.88 1014.03 1014.27 1014.52 1014.72 1014.83 1014.83 1014.75 1014.65 1014.56 1014.56 1014.64 1014.83 1015.08 1015.36 1015.62 1015.80 1015.88 1015.84 1015.70 1015.48 1015.21 1014.94 1014.67
1012.16 1012.28 1012.47 1012.79 1013.29 1013.99 1014.84 1015.78 1016.69 1017.45 1017.95 1018.14 1017.97 1017.50 1016.81 1016.01 1015.24 1014.60 1014.19 1014.02 1014.08 1014.32 1014.64 1014.97 1015.23 1015.38 1015.41 1015.35 1015.24 1015.14 1015.11 1015.16 1015.30 1015.51 1015.75 1015.97 1016.14 1016.21 1016.19 1016.07 1015.88 1015.64 1015.38 1015.12
1012.25 1012.47 1012.79 1013.26 1013.90 1014.69 1015.59 1016.51 1017.34 1017.97 1018.32 1018.33 1018.02 1017.43 1016.66 1015.84 1015.10 1014.53 1014.20 1014.14 1014.31 1014.64 1015.05 1015.46 1015.77 1015.97 1016.03 1015.99 1015.90 1015.79 1015.73 1015.75 1015.84 1016.00 1016.19 1016.37 1016.51 1016.57 1016.54 1016.44 1016.27 1016.06 1015.82 1015.58
1012.26 1012.58 1013.03 1013.62 1014.36 1015.20 1016.09 1016.94 1017.64 1018.12 1018.29 1018.15 1017.72 1017.06 1016.27 1015.48 1014.81 1014.36 1014.15 1014.21 1014.49 1014.92 1015.41 1015.88 1016.25 1016.49 1016.59 1016.58 1016.51 1016.41 1016.35 1016.34 1016.40 1016.51 1016.64 1016.78 1016.87 1016.91 1016.87 1016.77 1016.61 1016.42 1016.20 1015.97
1012.17 1012.61 1013.16 1013.84 1014.61 1015.45 1016.28 1017.00 1017.55 1017.85 1017.87 1017.59 1017.07 1016.38 1015.63 1014.93 1014.38 1014.06 1014.00 1014.18 1014.57 1015.08 1015.64 1016.16 1016.57 1016.85 1017.00 1017.04 1017.00 1016.94 1016.89 1016.88 1016.92 1017.00 1017.09 1017.17 1017.22 1017.22 1017.16 1017.05 1016.89 1016.70 1016.49 1016.27
1012.04 1012.57 1013.20 1013.91 1014.68 1015.45 1016.16 1016.73 1017.09 1017.21 1017.06 1016.68 1016.11 1015.44 1014.77 1014.20 1013.81 1013.65 1013.74 1014.05 1014.53 1015.12 1015.72 1016.27 1016.72 1017.04 1017.24 1017.33 1017.35 1017.34 1017.33 1017.35 1017.38 1017.44 1017.50 1017.54 1017.54 1017.50 1017.41 1017.28 1017.11 1016.92 1016.71 1016.48
1011.93 1012.53 1013.20 1013.91 1014.61 1015.27 1015.81 1016.18 1016.34 1016.27 1015.98 1015.52 1014.93 1014.32 1013.77 1013.36 1013.15 1013.16 1013.40 1013.84 1014.41 1015.04 1015.68 1016.25 1016.72 1017.08 1017.32 1017.48 1017.57 1017.63 1017.68 1017.73 1017.79 1017.85 1017.88 1017.89 1017.86 1017.77 1017.65 1017.49 1017.31 1017.11 1016.88 1016.64
1011.92 1012.56 1013.22 1013.88 1014.48 1014.97 1015.31 1015.46 1015.41 1015.16 1014.74 1014.21 1013.65 1013.13 1012.72 1012.48 1012.46 1012.66 1013.05 1013.60 1014.24 1014.92 1015.57 1016.15 1016.64 1017.02 1017.31 1017.53 1017.70 1017.84 1017.96 1018.07 1018.16 1018.23 1018.26 1018.24 1018.17 1018.06 1017.91 1017.73 1017.53 1017.31 1017.08 1016.83
1012.07 1012.70 1013.32 1013.88 1014.33 1014.63 1014.75 1014.67 1014.40 1013.98 1013.46 1012.90 1012.38 1011.96 1011.70 1011.66 1011.82 1012.19 1012.72 1013.37 1014.08 1014.79 1015.45 1016.04 1016.54 1016.95 1017.29 1017.57 1017.81 1018.02 1018.22 1018.38 1018.51 1018.59 1018.62 1018.59 1018.50 1018.37 1018.20 1018.00 1017.79 1017.57 1017.33 1017.07
1012.38 1012.97 1013.49 1013.92 1014.19 1014.27 1014.17 1013.87 1013.41 1012.84 1012.24 1011.67 1011.20 1010.90 1010.81 1010.94 1011.29 1011.82 1012.48 1013.22 1013.99 1014.72 1015.40 1015.99 1016.49 1016.93 1017.30 1017.64 1017.94 1018.22 1018.47 1018.68 1018.84 1018.95 1018.98 1018.94 1018.85 1018.70 1018.53 1018.33 1018.12 1017.91 1017.67 1017.42
1012.81 1013.30 1013.70 1013.95 1014.03 1013.90 1013.59 1013.09 1012.47 1011.80 1011.15 1010.59 1010.20 1010.02 1010.08 1010.38 1010.88 1011.56 1012.34 1013.16 1013.97 1014.74 1015.42 1016.02 1016.53 1016.99 1017.39 1017.76 1018.11 1018.44 1018.73 1018.98 1019.16 1019.28 1019.31 1019.28 1019.19 1019.05 1018.89 1018.71 1018.52 1018.32 1018.10 1017.85
1013.25 1013.61 1013.84 1013.92 1013.80 1013.49 1012.99 1012.34 1011.62 1010.88 1010.21 1009.70 1009.39 1009.33 1009.53 1009.98 1010.62 1011.42 1012.29 1013.18 1014.04 1014.82 1015.52 1016.13 1016.65 1017.12 1017.55 1017.95 1018.32 1018.68 1018.99 1019.25 1019.45 1019.57 1019.62 1019.59 1019.51 1019.40 1019.26 1019.11 1018.95 1018.78 1018.58 1018.35
1013.60 1013.79 1013.85 1013.75 1013.46 1012.99 1012.36 1011.62 1010.84 1010.09 1009.45 1009.01 1008.79 1008.85 1009.17 1009.74 1010.49 1011.38 1012.32 1013.26 1014.15 1014.96 1015.67 1016.28 1016.82 1017.31 1017.75 1018.16 1018.55 1018.91 1019.23 1019.50 1019.69 1019.82 1019.87 1019.87 1019.81 1019.72 1019.62 1019.51 1019.39 1019.25 1019.08 1018.86
1013.77 1013.78 1013.67 1013.41 1012.99 1012.41 1011.71 1010.93 1010.15 1009.44 1008.87 1008.52 1008.41 1008.57 1008.99 1009.65 1010.48 1011.42 1012.40 1013.37 1014.28 1015.11 1015.83 1016.46 1017.01 1017.50 1017.96 1018.38 1018.77 1019.13 1019.44 1019.70 1019.90 1020.03 1020.09 1020.11 1020.08 1020.04 1019.98 1019.91 1019.83 1019.72 1019.57 1019.36
1013.71 1013.55 1013.29 1012.90 1012.38 1011.75 1011.04 1010.29 1009.57 1008.94 1008.48 1008.23 1008.23 1008.48 1008.99 1009.70 1010.57 1011.54 1012.54 1013.51 1014.43 1015.25 1015.99 1016.62 1017.19 1017.69 1018.15 1018.58 1018.97 1019.32 1019.63 1019.88 1020.08 1020.21 1020.30 1020.34 1020.35 1020.35 1020.33 1020.31 1020.26 1020.17 1020.03 1019.81
1013.45 1013.14 1012.75 1012.27 1011.71 1011.08 1010.41 1009.74 1009.12 1008.62 1008.29 1008.16 1008.26 1008.60 1009.15 1009.89 1010.77 1011.73 1012.72 1013.68 1014.58 1015.40 1016.13 1016.78 1017.35 1017.87 1018.34 1018.76 1019.15 1019.50 1019.80 1020.05 1020.25 1020.40 1020.50 1020.58 1020.63 1020.67 1020.70 1020.71 1020.68 1020.61 1020.46 1020.22
1013.04 1012.62 1012.14 1011.62 1011.05 1010.47 1009.88 1009.33 1008.85 1008.50 1008.30 1008.29 1008.48 1008.88 1009.47 1010.22 1011.08 1012.01 1012.95 1013.88 1014.75 1015.55 1016.28 1016.93 1017.51 1018.04 1018.51 1018.94 1019.33 1019.68 1019.97 1020.22 1020.43 1020.60 1020.73 1020.85 1020.94 1021.03 1021.09 1021.13 1021.12 1021.04 1020.88 1020.61
1012.60 1012.09 1011.56 1011.03 1010.50 1009.99 1009.51 1009.09 1008.77 1008.56 1008.50 1008.60 1008.88 1009.33 1009.93 1010.66 1011.48 1012.36 1013.25 1014.13 1014.97 1015.75 1016.46 1017.10 1017.69 1018.22 1018.70 1019.13 1019.52 1019.86 1020.16 1020.42 1020.64 1020.83 1021.00 1021.15 1021.29 1021.41 1021.51 1021.57 1021.56 1021.48 1021.30 1021.00
1012.19 1011.63 1011.09 1010.58 1010.10 1009.68 1009.32 1009.04 1008.86 1008.79 1008.85 1009.05 1009.40 1009.88 1010.48 1011.18 1011.96 1012.78 1013.62 1014.44 1015.23 1015.98 1016.68 1017.31 1017.89 1018.42 1018.90 1019.33 1019.72 1020.06 1020.36 1020.62 1020.86 1021.07 1021.27 1021.46 1021.64 1021.80 1021.92 1022.00 1022.01 1021.92 1021.73 1021.41
Thickness
5733 5717 5707 5712 5717 5717 5714 5708 5705 5712 5726 5718 5709 5708 5714 5720 5721 5718 5717 5719 5719 5721 5725 5727 5727 5727 5727 5725 5722 5721 5720 5718 5717 5714 5712 5709 5708 5708 5708 5709 5709 5708 5707 5706
5711 5707 5721 5726 5725 5720 5714 5705 5703 5711 5723 5716 5705 5706 5713 5718 5718 5719 5718 5717 5718 5719 5720 5722 5722 5723 5722 5721 5720 5718 5717 5716 5715 5714 5712 5710 5708 5706 5707 5706 5705 5705 5704 5703
5704 5716 5730 5724 5718 5713 5711 5706 5705 5706 5713 5713 5703 5696 5705 5714 5719 5720 5720 5719 5719 5719 5719 5718 5718 5718 5718 5717 5717 5717 5715 5714 5713 5713 5711 5708 5704 5703 5701 5701 5701 5701 5701 5700
5710 5724 5725 5719 5716 5715 5704 5718 5716 5711 5698 5688 5697 5675 5695 5705 5708 5712 5714 5714 5715 5718 5718 5717 5716 5715 5715 5716 5716 5715 5714 5712 5711 5710 5707 5704 5700 5697 5698 5699 5698 5699 5698 5697
5708 5720 5718 5714 5719 5721 5713 5722 5717 5711 5698 5688 5690 5678 5687 5700 5700 5706 5711 5714 5715 5716 5717 5716 5715 5715 5715 5715 5713 5712 5711 5709 5708 5706 5705 5702 5699 5698 5697 5697 5695 5695 5694 5694
5714 5725 5725 5722 5728 5728 5723 5713 5706 5695 5686 5673 5685 5678 5681 5693 5704 5709 5713 5714 5715 5715 5715 5714 5715 5714 5712 5711 5710 5708 5706 5705 5705 5703 5702 5700 5697 5695 5693 5692 5691 5690 5689 5689
5701 5713 5724 5728 5716 5718 5710 5685 5667 5665 5658 5664 5687 5682 5686 5707 5716 5717 5715 5714 5715 5715 5712 5710 5709 5709 5708 5706 5705 5704 5702 5701 5701 5700 5698 5697 5695 5694 5691 5690 5688 5686 5684 5684
5680 5685 5710 5719 5712 5704 5702 5687 5663 5654 5652 5662 5680 5678 5694 5714 5720 5720 5718 5715 5713 5711 5710 5709 5708 5707 5706 5704 5703 5701 5699 5698 5697 5696 5695 5694 5693 5691 5689 5688 5686 5684 5683 5682
5678 5683 5711 5720 5721 5712 5697 5686 5686 5668 5666 5659 5667 5681 5697 5711 5711 5711 5710 5709 5708 5708 5708 5707 5706 5705 5703 5701 5700 5698 5696 5695 5694 5693 5692 5690 5689 5688 5687 5685 5683 5682 5681 5679
5689 5681 5699 5711 5715 5712 5705 5694 5673 5664 5653 5647 5661 5670 5677 5694 5699 5703 5703 5703 5705 5706 5705 5704 5703 5702 5700 5699 5697 5695 5694 5692 5691 5690 5688 5687 5686 5685 5684 5681 5679 5677 5676 5675
5690 5677 5683 5694 5693 5691 5693 5688 5677 5662 5658 5647 5647 5665 5698 5699 5701 5700 5700 5702 5702 5702 5702 5701 5699 5698 5696 5695 5693 5690 5689 5687 5686 5685 5683 5682 5681 5680 5678 5676 5675 5674 5672 5671
5685 5671 5666 5680 5697 5703 5696 5689 5676 5659 5657 5654 5649 5665 5705 5704 5704 5702 5699 5699 5700 5699 5698 5697 5695 5692 5690 5688 5687 5685 5684 5682 5681 5680 5678 5677 5676 5674 5672 5670 5670 5669 5668 5667
5683 5666 5654 5660 5672 5686 5687 5689 5683 5670 5658 5650 5646 5664 5698 5698 5698 5699 5697 5695 5694 5693 5692 5690 5688 5685 5684 5682 5681 5680 5679 5677 5676 5674 5672 5671 5670 5668 5666 5665 5664 5664 5663 5662
5685 5664 5656 5652 5658 5670 5674 5681 5681 5668 5651 5650 5656 5668 5684 5686 5688 5690 5691 5690 5689 5687 5686 5683 5680 5679 5678 5677 5675 5674 5672 5671 5670 5668 5666 5664 5663 5662 5661 5660 5659 5658 5657 5656
5674 5660 5663 5666 5672 5673 5673 5675 5676 5670 5664 5657 5664 5669 5678 5683 5686 5687 5686 5685 5682 5680 5679 5678 5675 5673 5671 5670 5669 5668 5666 5665 5663 5661 5659 5658 5657 5656 5655 5653 5652 5652 5651 5650
5662 5657 5658 5659 5667 5667 5665 5671 5672 5672 5671 5667 5667 5670 5683 5684 5683 5680 5678 5677 5675 5673 5673 5672 5671 5668 5666 5665 5664 5662 5660 5658 5656 5654 5653 5652 5650 5649 5648 5647 5646 5645 5644 5643
5650 5648 5643 5640 5652 5654 5650 5666 5669 5669 5672 5669 5662 5670 5677 5674 5674 5674 5673 5672 5670 5668 5668 5667 5665 5663 5662 5660 5659 5656 5654 5652 5649 5647 5646 5645 5644 5642 5641 5641 5639 5638 5637 5636
5644 5639 5631 5630 5636 5630 5655 5673 5674 5668 5668 5670 5670 5671 5672 5673 5673 5673 5671 5667 5665 5664 5663 5662 5660 5658 5657 5655 5653 5651 5648 5645 5643 5640 5639 5638 5637 5636 5635 5634 5633 5631 5630 5629
5647 5637 5625 5620 5621 5631 5652 5666 5668 5661 5658 5666 5664 5665 5666 5666 5663 5660 5664 5663 5661 5661 5659 5657 5655 5653 5651 5649 5647 5643 5640 5638 5636 5634 5633 5632 5631 5629 5628 5627 5626 5626 5624 5623
5639 5634 5622 5615 5616 5618 5644 5663 5669 5660 5647 5661 5661 5658 5656 5655 5641 5645 5656 5656 5654 5653 5652 5650 5648 5646 5643 5642 5640 5636 5633 5631 5630 5629 5628 5627 5625 5623 5622 5621 5620 5619 5618 5617
5624 5619 5614 5611 5610 5622 5646 5657 5658 5636 5640 5656 5656 5654 5651 5646 5644 5647 5649 5648 5647 5645 5644 5643 5641 5638 5636 5635 5633 5630 5627 5626 5626 5625 5623 5621 5619 5617 5616 5614 5613 5612 5611 5609
5616 5611 5608 5605 5603 5617 5646 5647 5639 5640 5647 5649 5648 5648 5645 5643 5643 5642 5641 5638 5637 5635 5634 5634 5631 5628 5628 5627 5626 5623 5621 5621 5620 5618 5616 5614 5612 5611 5609 5606 5604 5604 5603 5600
5614 5615 5613 5613 5618 5632 5640 5641 5643 5642 5640 5641 5640 5641 5639 5636 5633 5633 5631 5628 5627 5626 5625 5624 5622 5620 5619 5618 5618 5615 5615 5614 5612 5610 5608 5606 5604 5602 5600 5598 5596 5594 5593 5592
5610 5615 5610 5609 5618 5624 5629 5633 5635 5636 5635 5635 5635 5633 5631 5627 5625 5623 5620 5618 5617 5616 5615 5614 5612 5610 5609 5609 5609 5609 5608 5607 5605 5602 5600 5598 5595 5593 5591 5590 5589 5586 5585 5583
5603 5605 5600 5601 5609 5614 5619 5622 5624 5625 5626 5625 5625 5625 5623 5620 5617 5614 5611 5609 5608 5607 5606 5605 5603 5602 5601 5601 5601 5601 5600 5598 5596 5593 5592 5589 5587 5585 5582 5581 5580 5579 5578 5577
5594 5595 5593 5595 5603 5602 5606 5613 5616 5615 5615 5615 5615 5613 5613 5612 5609 5606 5603 5601 5599 5597 5596 5595 5594 5593 5593 5593 5592 5593 5592 5590 5588 5585 5582 5580 5578 5575 5573 5571 5570 5569 5569 5569